星链-5414 (STARLINK-5414 )

导读 | 豆包AI

STARLINK-5414是美国SpaceX公司星链(Starlink)星座的一颗互联网卫星,于2022年12月17日发射升空,属于星链Group 4批次组网卫星。该卫星重约297千克,运行在约548公里高度的近地轨道,旨在为全球尤其是偏远地区提供低延迟、高速的卫星互联网接入服务,是SpaceX打造大规模卫星互联网星座的组成部分,截至2026年已在轨运行超三年。

Basic Information
目录编号:
54809
目录名称:
STARLINK-5414
国际标识:
2022-175BD
轨道中心:
EARTH
卫星名称:
星链-5414
卫星全名:
星链-5414 (STARLINK-5414 )
卫星状态:
在轨 (已飞行1230 天)
发射日期:
2022-12-17 UTC
国别 :
美国 (US)
星等 :
--
Orbit Information
数据来源 国际轨道数据 AOE轨道数据
星历时间 2026-04-30T09:51:25+0800
13小时前
查看轨道信息
2026-04-26T04:00:00+0800
4天前
查看轨道信息
半长轴 6917.893km 6917.885km
偏心率 0.0001223 0.0001127
轨道倾角 53.216° 53.215°
近地点辐角 87.987° 75.156°
升交点赤经 157.987° 177.040°
平近点角 272.126° 259.590°
近地点 538.909km 538.968km
远地点 540.603km 540.528km
周期 95.438分钟 95.438分钟
每日圈数 15.088362 15.088387
Detailed Information
固有亮度:
5
最大亮度:
2.5
卫星平台:
Starlink v1.5
覆盖范围:
全球
运营商:
太空探索技术公司
运营商所在国:
美国
制造商(研发单位):
太空探索技术公司
制造商所在国:
美国
使用方式:
暂无
Satellite Introduction
星链(Starlink)计划是由太空探索技术公司(SpaceX)提出的一个巨型低轨卫星互联网星座项目,计划在2019年至2024年间在太空搭建由约1.2万颗卫星组成的“星链”网络,其中1584颗将部署在地球上空550千米处的近地轨道,并从2020年开始工作。该卫星仍在工作。
2D Orbit Map
3D Orbit Map
Orbit Altitude Analysis Chart
Orbit Inclination Analysis Chart
Orbit Comprehensive Analysis Chart
View Comprehensive Chart